This demonstration page uses our WeatherBlox Daily Observations layout. Learn more.

36.17497, -115.13722

Hourly Observations for January 2, 2018

Temp ( °F °C ) Dew Point ( °F °C ) Humidity (%) Winds ( mph kmh ) Pressure ( in mb ) Visibility ( mi km ) Precip ( " mm )
12:53 am 00:53 Clear 47 8.3 18 -7.8 31 31 W 6 9 30.29 1026 10 16.0934 0 0
1:53 am 01:53 Clear 47 8.3 16 -8.9 29 29 Calm 30.3 1026 10 16.0934 0 0
2:53 am 02:53 Clear 47 8.3 14 -10 26 26 Calm 30.3 1026 10 16.0934 0 0
3:53 am 03:53 Clear 45 7.2 13 -10.6 27 27 NW 5 7 30.3 1026 10 16.0934 0 0
4:53 am 04:53 Clear 44 6.7 15 -9.4 31 31 Calm 30.29 1026 10 16.0934 0 0
5:53 am 05:53 Clear 43 6.1 15 -9.4 32 32 WNW 5 7 30.32 1027 10 16.0934 0 0
6:53 am 06:53 Sunny 46 7.8 16 -8.9 30 30 WNW 3 6 30.34 1028 10 16.0934 0 0
7:53 am 07:53 Sunny 47 8.3 15 -9.4 28 28 Calm 30.36 1028 10 16.0934 0 0
8:53 am 08:53 Sunny 50 10 18 -7.8 28 28 NW 5 7 30.38 1029 10 16.0934 0 0
9:53 am 09:53 Sunny 55 12.8 20 -6.7 25 25 NE 5 7 30.39 1029 10 16.0934 0 0
10:53 am 10:53 Sunny 56 13.3 20 -6.7 24 24 Calm 30.36 1028 10 16.0934 0 0
11:53 am 11:53 Sunny 60 15.6 21 -6.1 22 22 S 3 6 30.33 1027 10 16.0934 0 0
12:53 pm 12:53 Sunny 61 16.1 22 -5.6 22 22 SSW 6 9 30.29 1026 10 16.0934 0 0
1:53 pm 13:53 Sunny 61 16.1 21 -6.1 21 21 SSW 5 7 30.28 1025 10 16.0934 0 0
2:53 pm 14:53 Sunny 62 16.7 22 -5.6 21 21 SSW 5 7 30.27 1025 10 16.0934 0 0
3:53 pm 15:53 Sunny 62 16.7 22 -5.6 21 21 SSW 5 7 30.27 1025 10 16.0934 0 0
4:53 pm 16:53 Clear 60 15.6 24 -4.4 25 25 Calm 30.27 1025 10 16.0934 0 0
5:53 pm 17:53 Clear 55 12.8 24 -4.4 30 30 NNW 3 6 30.29 1026 10 16.0934 0 0
6:53 pm 18:53 Clear 53 11.7 26 -3.3 35 35 NW 5 7 30.31 1026 10 16.0934 0 0
7:53 pm 19:53 Clear 50 10 26 -3.3 39 39 WNW 8 13 30.32 1027 10 16.0934 0 0
8:53 pm 20:53 Clear 50 10 25 -3.9 38 38 N 3 6 30.32 1027 10 16.0934 0 0
9:53 pm 21:53 Clear 48 8.9 25 -3.9 41 41 NW 5 7 30.32 1027 10 16.0934 0 0
10:53 pm 22:53 Clear 48 8.9 24 -4.4 39 39 NW 5 7 30.31 1026 10 16.0934 0 0
11:53 pm 23:53 Clear 46 7.8 25 -3.9 44 44 NW 7 11 30.29 1026 10 16.0934 0 0

Powered by AerisWeather